Location: Colorado Springs
(38.8340°N, 104.8210°W)
Time: 02:36:49
(UTC-07:00)

Vanguard 3 - Pass Details

Date: 22 October 2017
Orbit: 509 x 3263 km, 33.3° (Epoch: 23 November)

Event Time Altitude Azimuth Distance (km) Brightness Sun altitude
Rises 10:12:01 0° 274° (W) 4,299 10.5 28.7°
Reaches altitude 10° 10:16:23 10° 258° (WSW) 2,817 9.7 29.3°
Maximum altitude 10:20:36 18° 217° (SW) 1,843 9.3 29.8°
Drops below altitude 10° 10:23:50 10° 172° (S) 2,054 10.2 30.2°
Sets 10:26:23 0° 152° (SSE) 2,767 11.0 30.5°
